Wind_Speed
39 41 42 43 43 42 41 40 38 38 37 36 35 34 32 30 29 28 27 28 29 30 32 33 34 35 37 38 40 41 42 43 44 44 44 44 44 43 43 42 42 42
43 44 44 43 42 40 39 37 36 35 35 34 35 34 34 33 32 31 30 29 29 29 30 31 32 33 35 36 37 39 40 41 42 43 43 44 44 44 44 44 44 44
45 44 43 42 41 40 39 37 36 35 34 33 33 33 33 33 33 33 33 32 31 31 31 32 32 32 33 34 35 36 38 39 40 40 41 42 43 44 44 45 45 45
44 44 43 43 42 41 40 39 38 37 36 35 34 34 34 34 34 34 34 34 34 34 35 34 34 34 34 33 34 35 36 37 38 38 39 40 41 43 44 45 46 46
44 44 44 44 43 43 42 41 40 39 38 38 37 37 36 35 35 35 35 35 36 36 37 37 37 38 37 37 37 36 37 37 38 38 39 39 39 40 42 43 45 46
44 44 43 43 43 42 41 40 39 38 38 37 37 36 36 36 36 35 35 36 36 37 38 38 39 39 40 40 40 40 40 40 40 40 41 41 41 41 42 43 44 45
43 43 43 42 41 41 40 39 38 37 37 36 36 35 35 35 35 35 35 35 36 37 37 38 39 39 40 40 41 41 42 42 43 43 43 43 43 44 44 44 45 46
42 42 42 41 40 39 39 38 37 36 36 36 35 34 34 33 33 34 35 35 36 37 38 39 40 40 41 41 42 42 43 43 44 44 44 45 45 45 46 46 47 47
41 40 40 39 38 37 37 36 35 35 35 34 34 33 33 33 34 35 36 37 38 39 40 41 42 42 43 44 44 44 44 44 44 45 46 46 46 47 47 48 49 49
39 38 37 36 35 34 34 33 33 33 33 33 33 33 33 34 36 37 38 39 40 41 42 43 44 44 45 45 46 46 46 46 46 46 47 48 49 49 50 51 51 52
36 35 33 32 31 32 32 32 32 32 33 33 33 34 36 37 38 39 40 41 42 43 43 44 45 45 46 46 47 47 48 48 49 49 50 50 51 52 53 54 54 55
33 32 31 30 30 31 32 32 32 33 33 34 36 37 39 40 41 41 42 43 43 44 44 45 45 46 46 47 47 48 49 49 50 51 52 52 53 53 54 55 56 57
31 30 30 30 31 32 32 33 33 34 36 38 40 41 42 42 43 43 43 43 44 44 44 45 45 46 46 47 48 49 49 50 51 51 52 53 53 54 54 55 56 57
30 30 31 31 32 33 33 35 36 38 40 42 43 43 44 44 44 44 43 43 43 44 44 44 45 45 46 47 48 49 50 50 51 51 52 52 53 53 54 55 56 57
29 30 32 33 33 34 36 38 40 42 43 43 44 44 44 44 43 43 43 43 43 43 43 44 44 45 46 47 48 49 49 50 51 51 52 52 53 54 54 56 57 59
29 31 33 34 36 38 40 42 43 43 43 43 42 42 42 41 41 41 42 42 42 43 43 43 44 44 45 46 47 48 49 50 51 51 52 53 54 56 57 58 59 60
30 32 35 38 40 42 43 44 43 42 40 40 39 39 39 39 40 40 41 41 42 42 42 43 43 44 45 46 47 48 50 51 52 52 53 54 56 57 59 60 61 62
33 36 39 42 43 43 43 42 40 38 38 37 38 38 38 39 40 40 41 41 42 42 43 43 43 44 45 46 47 48 50 51 52 53 54 55 57 58 60 61 63 64
37 40 42 43 43 42 40 39 37 36 36 37 38 39 39 40 40 41 41 42 42 42 43 43 44 44 45 46 48 49 50 51 52 53 54 55 57 59 61 63 64 66
41 42 42 41 40 39 37 36 36 36 37 38 39 40 41 41 41 42 42 42 43 43 43 44 44 45 46 47 48 49 50 51 52 53 55 56 58 60 62 64 66 67
41 40 39 38 38 37 36 36 36 37 38 39 40 42 42 43 43 43 43 43 43 43 44 44 44 45 46 47 48 49 50 51 53 54 56 57 59 62 64 65 66 65
38 37 37 37 37 36 36 37 37 38 39 41 42 42 43 43 43 43 43 43 43 44 44 44 44 44 45 46 47 49 50 52 54 55 57 59 61 63 64 65 64 63
36 36 36 36 36 36 37 37 38 39 40 41 42 42 42 42 42 43 43 43 43 43 44 43 43 44 45 46 47 50 51 53 55 57 59 61 62 63 63 62 61 61
35 36 36 36 36 36 37 38 39 40 41 41 41 41 41 42 42 42 42 42 42 42 42 42 42 43 45 47 48 51 53 54 57 59 60 61 62 61 60 59 59 59
34 35 35 36 36 37 38 38 39 40 41 41 41 42 42 42 42 42 41 40 39 39 40 42 43 44 46 48 49 51 54 56 58 60 61 61 61 59 58 57 57 58
34 35 35 36 37 37 38 39 40 40 41 41 42 43 43 43 42 41 40 38 38 39 41 43 44 45 47 49 50 52 55 57 59 60 60 59 58 57 56 56 56 56
Wind_Direction
304 305 305 306 307 308 309 310 310 311 311 311 311 311 309 307 304 300 296 293 290 287 286 285 285 285 284 283 283 283 283 283 284 284 285 285 284 284 283 283 281 280
305 306 307 308 308 309 310 311 311 311 310 310 309 308 308 307 306 305 303 301 297 293 290 288 286 284 283 281 280 280 280 280 280 281 282 282 282 283 283 283 283 282
305 306 308 309 310 312 313 313 314 313 313 311 310 309 309 308 308 308 307 306 304 302 300 298 296 293 289 287 284 283 282 281 280 279 279 280 280 280 280 281 281 282
307 309 310 312 313 314 315 316 316 316 315 314 313 311 309 308 306 306 305 305 304 303 303 303 302 300 298 295 293 291 289 287 286 284 283 282 281 280 280 280 280 281
308 309 310 311 311 312 313 313 313 313 312 311 310 308 307 305 304 303 303 303 303 302 302 302 301 301 300 299 298 296 294 292 291 289 287 286 285 283 282 281 280 280
307 308 308 308 309 309 309 309 309 308 306 305 304 303 302 301 301 301 301 300 300 300 300 300 300 299 299 299 299 299 298 296 295 293 292 290 289 287 285 284 282 280
305 306 306 306 306 306 305 305 304 303 302 301 300 299 298 297 297 297 297 297 297 296 296 296 297 297 297 297 297 297 298 298 297 296 296 295 294 293 291 290 288 286
302 302 302 302 302 302 301 301 300 300 300 300 299 298 298 297 296 296 295 295 295 295 295 295 295 295 295 295 295 295 296 296 296 295 295 294 294 294 293 293 292 291
301 301 301 301 300 300 300 300 300 300 300 299 299 298 298 298 297 297 296 295 295 294 294 294 294 294 294 294 294 294 294 293 294 294 294 294 293 293 293 292 292 292
300 300 299 299 298 298 299 299 299 298 297 296 296 296 296 296 296 295 294 294 293 292 292 292 292 292 293 293 293 293 293 293 293 293 293 294 293 293 293 293 292 292
298 297 296 296 295 295 296 296 296 295 293 293 293 294 294 294 294 293 292 291 291 291 291 291 291 291 292 292 292 293 293 293 294 294 294 294 294 294 293 293 293 292
295 294 293 291 291 292 293 293 293 292 293 293 294 294 294 294 293 292 291 291 291 291 291 291 291 291 292 292 292 292 293 293 294 294 294 294 294 294 294 294 294 293
292 290 288 288 289 291 292 292 292 293 294 294 295 294 294 293 292 291 291 290 290 291 291 291 291 291 291 292 292 292 292 293 293 293 293 293 293 293 294 294 294 294
288 286 286 287 289 290 290 291 292 293 294 293 293 292 292 291 290 290 290 290 290 291 291 291 291 291 292 292 292 292 292 292 292 292 292 292 293 293 294 294 294 294
285 285 285 287 289 289 290 291 292 292 292 291 291 290 290 290 290 290 290 290 291 291 291 292 292 292 293 293 292 292 293 293 293 293 293 294 294 294 294 295 295 295
284 284 285 287 288 289 290 291 291 291 290 290 289 289 289 289 290 290 291 291 291 291 292 293 293 294 294 294 294 294 294 294 294 295 295 295 295 295 295 296 296 296
283 283 284 286 288 289 290 290 290 289 289 289 289 289 290 290 291 291 292 292 293 293 294 294 295 295 295 295 296 296 296 296 296 296 296 297 298 298 297 297 297 297
283 284 285 287 288 289 289 289 289 288 288 289 290 291 292 292 293 294 294 295 295 295 296 296 297 297 296 296 296 297 297 297 298 298 299 300 300 300 299 299 299 299
285 286 287 287 288 288 288 289 288 289 290 291 292 293 294 295 296 296 297 297 297 298 298 298 298 297 297 297 297 297 298 299 299 300 301 302 302 301 301 302 302 301
286 286 286 287 287 288 288 289 290 291 292 293 294 295 296 297 298 298 299 299 299 299 299 298 298 297 297 297 298 299 300 300 301 302 302 302 302 303 303 303 303 303
285 285 286 287 288 289 290 291 293 294 295 295 296 297 298 300 300 300 301 301 300 300 299 298 297 297 298 298 299 300 301 301 302 302 302 303 303 304 304 304 303 302
284 285 285 286 288 290 292 293 295 296 296 297 298 300 301 302 302 302 302 301 300 299 298 297 298 298 299 300 300 301 301 302 302 302 303 303 304 305 305 304 303 301
282 283 285 286 288 290 292 294 295 296 297 298 300 301 302 302 302 301 301 299 298 297 297 297 298 299 300 301 301 301 302 302 302 303 304 305 305 305 304 303 301 299
281 282 284 286 288 290 292 294 296 297 298 300 301 302 302 301 301 300 299 298 297 297 298 298 299 300 301 301 302 302 303 303 304 304 305 306 306 304 303 301 300 300
282 283 285 287 289 291 293 295 296 297 299 301 301 301 301 300 300 299 298 297 297 298 299 299 300 301 302 303 303 304 305 305 305 306 307 306 305 304 302 301 300 301
284 285 286 288 290 292 293 295 297 298 300 300 301 301 301 300 300 299 298 297 298 299 300 301 302 303 303 304 305 306 306 307 307 308 308 306 305 303 302 301 301 302
Height
3105 3104 3103 3102 3101 3100 3098 3097 3096 3095 3093 3092 3092 3091 3090 3090 3089 3089 3088 3087 3087 3086 3086 3085 3083 3082 3081 3080 3079 3078 3078 3077 3076 3075 3074 3073 3072 3071 3070 3069 3069 3068
3101 3099 3098 3097 3095 3094 3093 3092 3091 3090 3089 3088 3087 3086 3085 3084 3083 3082 3081 3080 3080 3080 3079 3079 3078 3077 3076 3075 3074 3073 3073 3072 3071 3070 3069 3068 3067 3066 3065 3064 3063 3062
3095 3094 3093 3091 3090 3088 3087 3086 3085 3084 3083 3082 3081 3080 3079 3078 3077 3076 3075 3074 3074 3073 3072 3071 3071 3070 3069 3069 3068 3067 3067 3066 3065 3065 3064 3062 3061 3061 3059 3059 3058 3057
3089 3088 3086 3085 3083 3082 3081 3080 3079 3077 3077 3076 3075 3074 3074 3073 3072 3071 3070 3069 3068 3067 3066 3065 3064 3063 3063 3062 3062 3061 3061 3060 3059 3059 3059 3057 3056 3055 3054 3053 3052 3051
3084 3083 3082 3081 3079 3078 3077 3076 3075 3074 3073 3072 3071 3070 3070 3069 3068 3067 3066 3065 3064 3062 3061 3060 3059 3058 3057 3056 3056 3055 3055 3054 3053 3053 3052 3052 3051 3050 3048 3047 3047 3046
3079 3079 3078 3077 3076 3075 3074 3073 3072 3071 3070 3069 3068 3067 3066 3065 3064 3063 3062 3061 3059 3058 3057 3055 3054 3053 3052 3051 3050 3049 3049 3048 3047 3046 3045 3045 3044 3043 3042 3041 3040 3040
3076 3075 3074 3073 3072 3072 3071 3070 3069 3068 3067 3066 3065 3064 3063 3062 3061 3060 3058 3057 3056 3054 3053 3052 3050 3049 3048 3047 3046 3044 3043 3042 3041 3040 3039 3038 3037 3036 3035 3034 3033 3033
3073 3072 3071 3070 3069 3068 3067 3066 3065 3064 3063 3062 3060 3059 3059 3058 3057 3056 3054 3053 3051 3050 3049 3047 3046 3045 3043 3042 3041 3040 3039 3037 3036 3034 3033 3032 3031 3030 3029 3027 3026 3025
3069 3068 3067 3066 3065 3063 3062 3061 3060 3059 3058 3057 3056 3055 3054 3053 3052 3051 3050 3048 3047 3045 3044 3042 3041 3040 3038 3037 3036 3034 3033 3032 3031 3029 3028 3026 3025 3024 3023 3021 3020 3019
3064 3063 3062 3061 3060 3059 3058 3057 3056 3055 3054 3053 3053 3052 3051 3050 3048 3047 3045 3044 3042 3041 3039 3037 3036 3035 3033 3031 3030 3028 3027 3026 3025 3023 3022 3020 3019 3017 3016 3015 3013 3012
3059 3058 3057 3056 3055 3055 3054 3053 3053 3052 3051 3050 3049 3048 3047 3046 3044 3042 3041 3039 3037 3036 3034 3032 3031 3029 3028 3026 3024 3022 3021 3019 3018 3017 3016 3014 3013 3011 3009 3007 3006 3004
3054 3054 3053 3052 3052 3051 3051 3050 3049 3048 3047 3046 3045 3043 3042 3040 3039 3037 3035 3034 3032 3030 3029 3027 3026 3024 3022 3020 3019 3017 3015 3014 3012 3010 3009 3007 3006 3004 3002 3000 2998 2996
3050 3049 3049 3048 3048 3047 3046 3045 3044 3043 3042 3041 3039 3038 3036 3035 3033 3032 3030 3029 3027 3025 3024 3022 3020 3019 3017 3015 3013 3011 3010 3008 3006 3005 3003 3001 3000 2998 2996 2994 2991 2989
3046 3045 3045 3044 3044 3043 3042 3041 3040 3038 3037 3036 3034 3032 3031 3029 3028 3026 3025 3023 3022 3020 3018 3017 3015 3013 3011 3009 3007 3005 3004 3002 3000 2998 2997 2995 2994 2992 2990 2987 2985 2983
3042 3042 3041 3040 3040 3039 3037 3036 3035 3034 3032 3030 3029 3027 3025 3024 3022 3021 3020 3018 3017 3015 3013 3011 3010 3008 3005 3003 3001 2999 2997 2995 2994 2992 2990 2988 2987 2985 2983 2981 2978 2976
3039 3038 3037 3036 3035 3034 3033 3032 3030 3028 3027 3025 3023 3022 3020 3019 3017 3016 3014 3013 3011 3010 3008 3006 3004 3002 3000 2997 2995 2992 2991 2989 2987 2985 2983 2981 2979 2977 2975 2973 2971 2968
3035 3034 3033 3032 3031 3030 3028 3027 3025 3023 3021 3020 3018 3017 3015 3014 3012 3011 3009 3008 3006 3004 3003 3001 2999 2997 2994 2992 2989 2986 2984 2982 2980 2978 2977 2974 2972 2969 2967 2965 2962 2959
3031 3030 3029 3027 3026 3025 3023 3021 3020 3018 3016 3015 3013 3012 3010 3009 3007 3006 3004 3003 3001 2999 2997 2995 2993 2991 2988 2986 2984 2981 2978 2976 2973 2972 2970 2967 2965 2962 2959 2956 2953 2950
3027 3025 3024 3022 3021 3019 3018 3016 3015 3013 3012 3010 3008 3007 3005 3004 3002 3001 2999 2997 2996 2994 2992 2990 2988 2985 2983 2980 2978 2975 2972 2969 2967 2965 2963 2960 2957 2954 2951 2947 2944 2940
3022 3020 3019 3017 3016 3014 3013 3011 3010 3008 3007 3005 3003 3002 3000 2999 2997 2996 2994 2992 2990 2988 2986 2984 2982 2979 2977 2974 2971 2969 2966 2963 2961 2959 2956 2954 2950 2947 2943 2939 2935 2931
3016 3015 3013 3012 3010 3009 3007 3006 3004 3003 3001 3000 2998 2997 2995 2994 2992 2990 2988 2986 2984 2982 2980 2979 2976 2974 2971 2968 2966 2963 2960 2957 2954 2952 2949 2947 2943 2939 2935 2931 2927 2923
3011 3009 3008 3006 3005 3004 3002 3001 2999 2998 2996 2995 2993 2992 2990 2988 2986 2984 2982 2980 2978 2976 2974 2973 2971 2968 2965 2963 2960 2957 2954 2951 2948 2945 2942 2939 2936 2932 2927 2923 2919 2915
3006 3004 3003 3002 3000 2999 2998 2996 2995 2993 2991 2990 2988 2986 2985 2983 2981 2979 2977 2975 2973 2971 2968 2967 2965 2963 2960 2958 2954 2951 2948 2945 2941 2938 2935 2932 2929 2924 2920 2915 2912 2908
3001 3000 2999 2997 2996 2994 2993 2991 2990 2988 2986 2984 2983 2981 2979 2977 2975 2974 2972 2969 2967 2965 2963 2961 2960 2957 2954 2952 2949 2945 2941 2938 2934 2931 2928 2924 2920 2917 2912 2908 2904 2901
2996 2995 2994 2992 2991 2990 2988 2986 2985 2983 2981 2979 2977 2975 2973 2972 2970 2968 2966 2964 2962 2960 2958 2956 2954 2952 2948 2946 2943 2939 2934 2930 2927 2923 2920 2916 2912 2908 2905 2901 2897 2894
2991 2990 2989 2988 2986 2985 2983 2981 2979 2977 2975 2974 2972 2969 2967 2966 2964 2962 2960 2959 2957 2955 2953 2950 2948 2946 2943 2940 2936 2932 2927 2923 2919 2915 2911 2908 2904 2900 2896 2893 2890 2887